,,Stat6,,Stat2,,Stat8,,Stat9,,Stat10,,Wind1,,Wind1,
time,status,PA1M_AVG,status,PR1M_SUM,status,RH1M_AVG,status,SR1M_AVG,status,TA1M_AVG,status,W1dAve1m,status,W1sAve1m,
2008-02-27, 00:00:00,VALID,917.969,VALID,0,VALID,100,VALID,-0.0169808,VALID,18.7321,VALID,121,VALID,1.22275,
2008-02-27, 00:01:01,VALID,917.955,VALID,0,VALID,100,VALID,-0.0509425,VALID,18.7319,VALID,126,VALID,1.24695,
2008-02-27, 00:02:00,VALID,917.956,VALID,0,VALID,100,VALID,-0.0339617,VALID,18.7247,VALID,120,VALID,0.872743,
2008-02-27, 00:03:00,VALID,917.966,VALID,0,VALID,100,VALID,-0.0339617,VALID,18.7418,VALID,132,VALID,1.3492,
2008-02-27, 00:04:00,VALID,917.98,VALID,0,VALID,100,VALID,-0.0169808,VALID,18.7478,VALID,133,VALID,1.24509,
2008-02-27, 00:05:01,VALID,917.98,VALID,0,VALID,100,VALID,-0.0169808,VALID,18.7383,VALID,134,VALID,1.28852,
2008-02-27, 00:06:00,VALID,917.968,VALID,0,VALID,100,VALID,-0.0169808,VALID,18.7416,VALID,129,VALID,1.19949,
2008-02-27, 00:07:00,VALID,917.962,VALID,0,VALID,100,VALID,0,VALID,18.7444,VALID,136,VALID,1.05723,
2008-02-27, 00:08:00,VALID,917.948,VALID,0,VALID,100,VALID,-0.0339617,VALID,18.7416,VALID,141,VALID,1.04897,
2008-02-27, 00:09:00,VALID,917.922,VALID,0,VALID,100,VALID,0.0169808,VALID,18.7284,VALID,138,VALID,1.43694,
2008-02-27, 00:10:01,VALID,917.911,VALID,0,VALID,100,VALID,0,VALID,18.7219,VALID,143,VALID,1.05028,
2008-02-27, 00:11:01,VALID,917.901,VALID,0,VALID,100,VALID,0,VALID,18.689,VALID,138,VALID,1.14615,
2008-02-27, 00:12:00,VALID,917.867,VALID,0,VALID,100,VALID,0,VALID,18.67,VALID,125,VALID,1.13899,
2008-02-27, 00:13:00,VALID,917.866,VALID,0,VALID,100,VALID,0,VALID,18.6607,VALID,127,VALID,1.10833,
2008-02-27, 00:14:00,VALID,917.857,VALID,0,VALID,100,VALID,0,VALID,18.6538,VALID,130,VALID,1.05689,
2008-02-27, 00:15:00,VALID,917.849,VALID,0,VALID,100,VALID,-0.0169808,VALID,18.654,VALID,120,VALID,1.23419,
2008-02-27, 00:16:01,VALID,917.835,VALID,0,VALID,100,VALID,-0.0169808,VALID,18.6406,VALID,118,VALID,1.11646,
2008-02-27, 00:17:00,VALID,917.842,VALID,0,VALID,100,VALID,0,VALID,18.6473,VALID,120,VALID,1.05398,
2008-02-27, 00:18:01,VALID,917.848,VALID,0,VALID,100,VALID,0,VALID,18.654,VALID,118,VALID,1.15513,
2008-02-27, 00:19:00,VALID,917.855,VALID,0,VALID,100,VALID,-0.0169808,VALID,18.6538,VALID,113,VALID,1.04192,
2008-02-27, 00:20:00,VALID,917.856,VALID,0,VALID,100,VALID,-0.0339617,VALID,18.664,VALID,110,VALID,0.868118,
2008-02-27, 00:21:01,VALID,917.853,VALID,0,VALID,100,VALID,-0.0169808,VALID,18.667,VALID,95,VALID,0.590216,
2008-02-27, 00:22:00,VALID,917.844,VALID,0,VALID,100,VALID,-0.0169808,VALID,18.6438,VALID,90,VALID,0.90734,
2008-02-27, 00:23:00,VALID,917.836,VALID,0,VALID,100,VALID,-0.0169808,VALID,18.6503,VALID,108,VALID,1.18129,
2008-02-27, 00:24:00,VALID,917.815,VALID,0,VALID,100,VALID,-0.0169808,VALID,18.6605,VALID,103,VALID,0.705966,
2008-02-27, 00:25:00,VALID,917.804,VALID,0,VALID,100,VALID,0,VALID,18.6603,VALID,117,VALID,1.02689,
2008-02-27, 00:26:00,VALID,917.806,VALID,0,VALID,100,VALID,-0.0849042,VALID,18.6605,VALID,120,VALID,1.04833,
2008-02-27, 00:27:00,VALID,917.785,VALID,0,VALID,100,VALID,-0.0169808,VALID,18.6573,VALID,123,VALID,0.97532,
2008-02-27, 00:28:00,VALID,917.768,VALID,0,VALID,100,VALID,-0.0509425,VALID,18.657,VALID,140,VALID,0.911204,
2008-02-27, 00:29:00,VALID,917.75,VALID,0,VALID,100,VALID,-0.0169808,VALID,18.657,VALID,138,VALID,0.884171,
2008-02-27, 00:30:00,VALID,917.729,VALID,0,VALID,100,VALID,-0.0169808,VALID,18.6635,VALID,135,VALID,0.848772,
2008-02-27, 00:31:00,VALID,917.685,VALID,0,VALID,100,VALID,0,VALID,18.673,VALID,142,VALID,0.861632,
2008-02-27, 00:32:01,VALID,917.653,VALID,0,VALID,100,VALID,-0.0339617,VALID,18.6902,VALID,146,VALID,0.936592,
2008-02-27, 00:33:01,VALID,917.63,VALID,0,VALID,100,VALID,-0.0509425,VALID,18.6932,VALID,147,VALID,0.808933,
2008-02-27, 00:34:00,VALID,917.595,VALID,0,VALID,100,VALID,0,VALID,18.7029,VALID,146,VALID,0.663336,
2008-02-27, 00:35:00,VALID,917.568,VALID,0,VALID,100,VALID,0,VALID,18.6994,VALID,146,VALID,0.575586,
2008-02-27, 00:36:00,VALID,917.56,VALID,0,VALID,100,VALID,-0.0169808,VALID,18.7131,VALID,146,VALID,0.421503,
2008-02-27, 00:37:01,VALID,917.552,VALID,0,VALID,100,VALID,0,VALID,18.7057,VALID,146,VALID,0,
2008-02-27, 00:38:00,VALID,917.548,VALID,0,VALID,100,VALID,-0.0169808,VALID,18.6989,VALID,146,VALID,0,
2008-02-27, 00:39:00,VALID,917.551,VALID,0,VALID,100,VALID,-0.0849042,VALID,18.6964,VALID,146,VALID,0,
2008-02-27, 00:40:01,VALID,917.55,VALID,0,VALID,100,VALID,-0.0339617,VALID,18.686,VALID,146,VALID,0.381541,
2008-02-27, 00:41:01,VALID,917.548,VALID,0,VALID,100,VALID,-0.0169808,VALID,18.6695,VALID,146,VALID,0.358186,
2008-02-27, 00:42:01,VALID,917.549,VALID,0,VALID,100,VALID,0,VALID,18.6698,VALID,146,VALID,0.290777,
2008-02-27, 00:43:01,VALID,917.545,VALID,0,VALID,100,VALID,-0.118866,VALID,18.6619,VALID,146,VALID,0,
2008-02-27, 00:44:01,VALID,917.531,VALID,0,VALID,100,VALID,-0.135847,VALID,18.6455,VALID,146,VALID,0.00104167,
2008-02-27, 00:45:01,VALID,917.506,VALID,0,VALID,100,VALID,-0.101885,VALID,18.6258,VALID,146,VALID,0.16887,
2008-02-27, 00:46:01,VALID,917.485,VALID,0,VALID,100,VALID,-0.0849042,VALID,18.6225,VALID,100,VALID,0.315848,
2008-02-27, 00:47:01,VALID,917.46,VALID,0,VALID,100,VALID,-0.101885,VALID,18.6063,VALID,95,VALID,0.417783,
2008-02-27, 00:48:01,VALID,917.437,VALID,0,VALID,100,VALID,-0.101885,VALID,18.6,VALID,91,VALID,0.229492,
2008-02-27, 00:49:01,VALID,917.423,VALID,0,VALID,100,VALID,-0.101885,VALID,18.5933,VALID,20,VALID,0.785511,
2008-02-27, 00:50:01,VALID,917.412,VALID,0,VALID,100,VALID,-0.118866,VALID,18.5938,VALID,17,VALID,0.854288,
2008-02-27, 00:51:00,VALID,917.386,VALID,0,VALID,100,VALID,-0.118866,VALID,18.5676,VALID,14,VALID,0.871548,
2008-02-27, 00:52:00,VALID,917.374,VALID,0,VALID,100,VALID,-0.118866,VALID,18.5317,VALID,19,VALID,0.803199,
2008-02-27, 00:53:00,VALID,917.347,VALID,0,VALID,100,VALID,-0.101885,VALID,18.5222,VALID,29,VALID,1.16637,
2008-02-27, 00:54:00,VALID,917.328,VALID,0,VALID,100,VALID,-0.118866,VALID,18.509,VALID,32,VALID,1.59677,
2008-02-27, 00:55:00,VALID,917.307,VALID,0,VALID,100,VALID,-0.118866,VALID,18.5102,VALID,50,VALID,1.47173,
2008-02-27, 00:56:00,VALID,917.286,VALID,0,VALID,100,VALID,-0.101885,VALID,18.503,VALID,49,VALID,0.795201,
2008-02-27, 00:57:00,VALID,917.256,VALID,0,VALID,100,VALID,-0.118866,VALID,18.4997,VALID,38,VALID,0.0241168,
2008-02-27, 00:58:00,VALID,917.229,VALID,0,VALID,100,VALID,-0.0169808,VALID,18.5081,VALID,38,VALID,0,
2008-02-27, 00:59:00,VALID,917.209,VALID,0,VALID,100,VALID,0,VALID,18.4983,VALID,38,VALID,0,
2008-02-27, 01:00:00,VALID,917.169,VALID,0,VALID,100,VALID,0,VALID,18.4814,VALID,38,VALID,0,
2008-02-27, 01:01:00,VALID,917.161,VALID,0,VALID,100,VALID,0,VALID,18.4752,VALID,38,VALID,0,
2008-02-27, 01:02:00,VALID,917.157,VALID,0,VALID,100,VALID,-0.0339617,VALID,18.4823,VALID,38,VALID,0,
2008-02-27, 01:03:00,VALID,917.152,VALID,0,VALID,100,VALID,-0.0509425,VALID,18.4624,VALID,52,VALID,0,
2008-02-27, 01:04:00,VALID,917.151,VALID,0,VALID,100,VALID,-0.0339617,VALID,18.4622,VALID,114,VALID,0,
2008-02-27, 01:05:00,VALID,917.164,VALID,0,VALID,100,VALID,-0.0169808,VALID,18.4395,VALID,154,VALID,0,
2008-02-27, 01:06:00,VALID,917.18,VALID,0,VALID,100,VALID,0,VALID,18.433,VALID,154,VALID,0,
2008-02-27, 01:07:00,VALID,917.158,VALID,0,VALID,100,VALID,-0.0169808,VALID,18.4205,VALID,154,VALID,0,
2008-02-27, 01:08:00,VALID,917.145,VALID,0,VALID,100,VALID,-0.0339617,VALID,18.4272,VALID,154,VALID,0,
2008-02-27, 01:09:00,VALID,917.138,VALID,0,VALID,100,VALID,-0.0169808,VALID,18.4501,VALID,154,VALID,0,
2008-02-27, 01:10:00,VALID,917.109,VALID,0,VALID,100,VALID,0,VALID,18.4274,VALID,136,VALID,0,
2008-02-27, 01:11:00,VALID,917.102,VALID,0,VALID,100,VALID,0,VALID,18.4103,VALID,111,VALID,0,
2008-02-27, 01:12:00,VALID,917.082,VALID,0,VALID,100,VALID,-0.0339617,VALID,18.4302,VALID,111,VALID,0,
2008-02-27, 01:13:00,VALID,917.072,VALID,0,VALID,100,VALID,0,VALID,18.4237,VALID,111,VALID,0,
2008-02-27, 01:14:00,VALID,917.041,VALID,0,VALID,100,VALID,0,VALID,18.3971,VALID,111,VALID,0,
2008-02-27, 01:15:00,VALID,917.035,VALID,0,VALID,100,VALID,0,VALID,18.3876,VALID,114,VALID,0,
2008-02-27, 01:16:00,VALID,917.029,VALID,0,VALID,100,VALID,-0.0169808,VALID,18.3818,VALID,126,VALID,0,
2008-02-27, 01:17:00,VALID,917.026,VALID,0,VALID,100,VALID,-0.0339617,VALID,18.3457,VALID,134,VALID,0,
2008-02-27, 01:18:00,VALID,917.015,VALID,0,VALID,100,VALID,-0.0169808,VALID,18.3364,VALID,133,VALID,0,
2008-02-27, 01:19:00,VALID,917.014,VALID,0,VALID,100,VALID,-0.0509425,VALID,18.3299,VALID,140,VALID,0,
2008-02-27, 01:20:00,VALID,917.001,VALID,0,VALID,100,VALID,-0.0339617,VALID,18.3591,VALID,144,VALID,0,
2008-02-27, 01:21:00,VALID,916.991,VALID,0,VALID,100,VALID,-0.0339617,VALID,18.3816,VALID,139,VALID,0,
2008-02-27, 01:22:00,VALID,916.98,VALID,0,VALID,100,VALID,-0.0339617,VALID,18.4015,VALID,129,VALID,0,
2008-02-27, 01:23:00,VALID,916.973,VALID,0,VALID,100,VALID,-0.0509425,VALID,18.3952,VALID,129,VALID,0,
2008-02-27, 01:24:00,VALID,916.955,VALID,0,VALID,100,VALID,-0.0509425,VALID,18.3883,VALID,118,VALID,0,
2008-02-27, 01:25:00,VALID,916.916,VALID,0,VALID,100,VALID,-0.0509425,VALID,18.3679,VALID,118,VALID,0,
2008-02-27, 01:26:00,VALID,916.892,VALID,0,VALID,100,VALID,-0.0339617,VALID,18.3584,VALID,128,VALID,0,
2008-02-27, 01:27:00,VALID,916.852,VALID,0,VALID,100,VALID,-0.0169808,VALID,18.3584,VALID,142,VALID,0,
2008-02-27, 01:28:00,VALID,916.833,VALID,0,VALID,100,VALID,-0.0339617,VALID,18.3681,VALID,147,VALID,0,
2008-02-27, 01:29:00,VALID,916.816,VALID,0,VALID,100,VALID,0,VALID,18.3744,VALID,146,VALID,0,
2008-02-27, 01:30:00,VALID,916.788,VALID,0,VALID,100,VALID,-0.0169808,VALID,18.3878,VALID,147,VALID,0,
2008-02-27, 01:31:00,VALID,916.776,VALID,0,VALID,100,VALID,-0.0169808,VALID,18.3876,VALID,141,VALID,0,
2008-02-27, 01:32:00,VALID,916.749,VALID,0,VALID,100,VALID,-0.0169808,VALID,18.3843,VALID,137,VALID,0,
2008-02-27, 01:33:00,VALID,916.717,VALID,0,VALID,100,VALID,-0.0339617,VALID,18.3811,VALID,139,VALID,0,
2008-02-27, 01:34:00,VALID,916.694,VALID,0,VALID,100,VALID,0,VALID,18.3744,VALID,138,VALID,0,
2008-02-27, 01:35:00,VALID,916.672,VALID,0,VALID,100,VALID,0,VALID,18.3843,VALID,138,VALID,0,
2008-02-27, 01:36:00,VALID,916.646,VALID,0,VALID,100,VALID,0,VALID,18.3779,VALID,138,VALID,0,
2008-02-27, 01:37:00,VALID,916.622,VALID,0,VALID,100,VALID,0,VALID,18.3843,VALID,137,VALID,0,
2008-02-27, 01:38:00,VALID,916.619,VALID,0,VALID,100,VALID,0,VALID,18.3941,VALID,133,VALID,0,
2008-02-27, 01:39:00,VALID,916.608,VALID,0,VALID,100,VALID,0,VALID,18.3941,VALID,131,VALID,0,
2008-02-27, 01:40:00,VALID,916.604,VALID,0,VALID,100,VALID,0,VALID,18.3908,VALID,131,VALID,0,
2008-02-27, 01:41:00,VALID,916.601,VALID,0,VALID,100,VALID,-0.0169808,VALID,18.3742,VALID,131,VALID,0,
2008-02-27, 01:42:00,VALID,916.593,VALID,0,VALID,100,VALID,0,VALID,18.3744,VALID,134,VALID,0.0792151,
2008-02-27, 01:43:00,VALID,916.58,VALID,0,VALID,100,VALID,0,VALID,18.3711,VALID,145,VALID,1.21414,
2008-02-27, 01:44:00,VALID,916.587,VALID,0,VALID,100,VALID,0,VALID,18.3744,VALID,141,VALID,0.996795,
2008-02-27, 01:45:00,VALID,916.581,VALID,0,VALID,100,VALID,-0.0339617,VALID,18.3906,VALID,140,VALID,1.07143,
2008-02-27, 01:46:00,VALID,916.583,VALID,0,VALID,100,VALID,0,VALID,18.3938,VALID,136,VALID,1.04119,
2008-02-27, 01:47:00,VALID,916.587,VALID,0,VALID,100,VALID,0,VALID,18.4006,VALID,118,VALID,0.930575,
2008-02-27, 01:48:00,VALID,916.573,VALID,0,VALID,100,VALID,0,VALID,18.4003,VALID,117,VALID,1.02553,
2008-02-27, 01:49:00,VALID,916.574,VALID,0,VALID,100,VALID,0,VALID,18.3938,VALID,127,VALID,0.804253,
2008-02-27, 01:50:00,VALID,916.552,VALID,0,VALID,100,VALID,0,VALID,18.3971,VALID,132,VALID,1.04599,
2008-02-27, 01:51:00,VALID,916.554,VALID,0,VALID,100,VALID,-0.0339617,VALID,18.4168,VALID,137,VALID,1.19773,
2008-02-27, 01:52:00,VALID,916.558,VALID,0,VALID,100,VALID,0,VALID,18.4267,VALID,133,VALID,1.00182,
2008-02-27, 01:53:00,VALID,916.55,VALID,0,VALID,100,VALID,0,VALID,18.433,VALID,137,VALID,0.999273,
2008-02-27, 01:54:00,VALID,916.554,VALID,0,VALID,100,VALID,-0.0169808,VALID,18.443,VALID,139,VALID,1.13027,
2008-02-27, 01:55:00,VALID,916.557,VALID,0,VALID,100,VALID,0,VALID,18.449,VALID,141,VALID,0.889583,
2008-02-27, 01:56:00,VALID,916.557,VALID,0,VALID,100,VALID,-0.0169808,VALID,18.4659,VALID,142,VALID,0.890625,
2008-02-27, 01:57:00,VALID,916.55,VALID,0,VALID,100,VALID,-0.0169808,VALID,18.4784,VALID,143,VALID,0.872142,
2008-02-27, 01:58:00,VALID,916.547,VALID,0,VALID,100,VALID,0,VALID,18.4879,VALID,155,VALID,0.69992,
2008-02-27, 01:59:00,VALID,916.537,VALID,0,VALID,100,VALID,0,VALID,18.5009,VALID,149,VALID,1.05283,
2008-02-27, 02:00:00,VALID,916.534,VALID,0,VALID,100,VALID,0,VALID,18.5108,VALID,141,VALID,1.12786,
2008-02-27, 02:01:00,VALID,916.529,VALID,0,VALID,100,VALID,0,VALID,18.5268,VALID,142,VALID,1.29115,
2008-02-27, 02:02:00,VALID,916.535,VALID,0,VALID,100,VALID,-0.0169808,VALID,18.5368,VALID,141,VALID,0.867733,
2008-02-27, 02:03:00,VALID,916.539,VALID,0,VALID,100,VALID,0.0169808,VALID,18.5368,VALID,136,VALID,1.05966,
2008-02-27, 02:04:00,VALID,916.547,VALID,0,VALID,100,VALID,0,VALID,18.5398,VALID,136,VALID,1.00037,
2008-02-27, 02:05:00,VALID,916.549,VALID,0,VALID,100,VALID,0,VALID,18.54,VALID,135,VALID,0.943026,
2008-02-27, 02:06:00,VALID,916.547,VALID,0,VALID,100,VALID,0,VALID,18.5597,VALID,136,VALID,0.927539,
2008-02-27, 02:07:00,VALID,916.547,VALID,0,VALID,100,VALID,0,VALID,18.563,VALID,140,VALID,0.941679,
2008-02-27, 02:08:00,VALID,916.548,VALID,0,VALID,100,VALID,-0.0169808,VALID,18.566,VALID,144,VALID,0.858259,
2008-02-27, 02:09:00,VALID,916.541,VALID,0,VALID,100,VALID,-0.0169808,VALID,18.5694,VALID,145,VALID,0.78824,
2008-02-27, 02:10:00,VALID,916.544,VALID,0,VALID,100,VALID,-0.0169808,VALID,18.5592,VALID,146,VALID,1.05469,
2008-02-27, 02:11:00,VALID,916.539,VALID,0,VALID,100,VALID,0.0169808,VALID,18.5692,VALID,143,VALID,0.935785,
2008-02-27, 02:12:00,VALID,916.532,VALID,0,VALID,100,VALID,-0.0339617,VALID,18.5725,VALID,142,VALID,0.941667,
2008-02-27, 02:13:00,VALID,916.525,VALID,0,VALID,100,VALID,0.0169808,VALID,18.5759,VALID,142,VALID,0.767113,
2008-02-27, 02:14:00,VALID,916.507,VALID,0,VALID,100,VALID,0.0169808,VALID,18.5757,VALID,146,VALID,0.703683,
2008-02-27, 02:15:00,VALID,916.505,VALID,0,VALID,100,VALID,0,VALID,18.5794,VALID,144,VALID,0.853198,
2008-02-27, 02:16:00,VALID,916.489,VALID,0,VALID,100,VALID,-0.0169808,VALID,18.566,VALID,144,VALID,0.808594,
2008-02-27, 02:17:00,VALID,916.469,VALID,0,VALID,100,VALID,0,VALID,18.553,VALID,155,VALID,0.925781,
2008-02-27, 02:18:00,VALID,916.458,VALID,0,VALID,100,VALID,-0.0169808,VALID,18.553,VALID,152,VALID,0.560369,
2008-02-27, 02:19:00,VALID,916.455,VALID,0,VALID,100,VALID,-0.0339617,VALID,18.5398,VALID,161,VALID,0.529883,
2008-02-27, 02:20:00,VALID,916.445,VALID,0,VALID,100,VALID,-0.0169808,VALID,18.5502,VALID,156,VALID,0.474219,
2008-02-27, 02:21:00,VALID,916.428,VALID,0,VALID,100,VALID,-0.0169808,VALID,18.5403,VALID,143,VALID,0.693859,
2008-02-27, 02:22:00,VALID,916.415,VALID,0,VALID,100,VALID,-0.0339617,VALID,18.5507,VALID,141,VALID,0.747275,
2008-02-27, 02:23:00,VALID,916.422,VALID,0,VALID,100,VALID,-0.0509425,VALID,18.5268,VALID,138,VALID,1.0564,
2008-02-27, 02:24:00,VALID,916.411,VALID,0,VALID,100,VALID,0,VALID,18.5138,VALID,135,VALID,1.23524,
2008-02-27, 02:25:00,VALID,916.407,VALID,0,VALID,100,VALID,-0.0169808,VALID,18.5043,VALID,138,VALID,1.2718,
2008-02-27, 02:26:00,VALID,916.41,VALID,0,VALID,100,VALID,-0.0339617,VALID,18.4976,VALID,132,VALID,1.20567,
2008-02-27, 02:27:00,VALID,916.413,VALID,0,VALID,100,VALID,-0.0339617,VALID,18.4951,VALID,136,VALID,1.22732,
2008-02-27, 02:28:00,VALID,916.418,VALID,0,VALID,100,VALID,0,VALID,18.4946,VALID,134,VALID,1.18895,
2008-02-27, 02:29:00,VALID,916.412,VALID,0,VALID,100,VALID,-0.0509425,VALID,18.4914,VALID,135,VALID,0.98125,
2008-02-27, 02:30:00,VALID,916.406,VALID,0,VALID,100,VALID,-0.0339617,VALID,18.4881,VALID,136,VALID,0.796701,
2008-02-27, 02:31:00,VALID,916.42,VALID,0,VALID,100,VALID,-0.0339617,VALID,18.4816,VALID,140,VALID,0.953307,
2008-02-27, 02:32:00,VALID,916.436,VALID,0,VALID,100,VALID,-0.0169808,VALID,18.4819,VALID,135,VALID,0.277521,
2008-02-27, 02:33:00,VALID,916.442,VALID,0,VALID,100,VALID,-0.0339617,VALID,18.4717,VALID,133,VALID,1.07209,
2008-02-27, 02:34:00,VALID,916.46,VALID,0,VALID,100,VALID,0,VALID,18.4657,VALID,121,VALID,0.795277,
2008-02-27, 02:35:00,VALID,916.469,VALID,0,VALID,100,VALID,-0.0509425,VALID,18.4527,VALID,127,VALID,1.08941,
2008-02-27, 02:36:00,VALID,916.474,VALID,0,VALID,100,VALID,0,VALID,18.449,VALID,128,VALID,0.697218,
2008-02-27, 02:37:00,VALID,916.471,VALID,0,VALID,100,VALID,-0.0169808,VALID,18.4525,VALID,118,VALID,0.719866,
2008-02-27, 02:38:00,VALID,916.462,VALID,0,VALID,100,VALID,-0.0339617,VALID,18.4395,VALID,115,VALID,0.744792,
2008-02-27, 02:39:00,VALID,916.47,VALID,0,VALID,100,VALID,-0.0339617,VALID,18.4362,VALID,126,VALID,0.582227,
2008-02-27, 02:40:00,VALID,916.45,VALID,0,VALID,100,VALID,0,VALID,18.4462,VALID,127,VALID,0.799479,
2008-02-27, 02:41:00,VALID,916.451,VALID,0,VALID,100,VALID,-0.0169808,VALID,18.446,VALID,126,VALID,0.601563,
2008-02-27, 02:42:00,VALID,916.438,VALID,0,VALID,100,VALID,-0.0339617,VALID,18.446,VALID,137,VALID,0.619391,
2008-02-27, 02:43:00,VALID,916.424,VALID,0,VALID,100,VALID,0,VALID,18.4559,VALID,142,VALID,0.216747,
2008-02-27, 02:44:00,VALID,916.42,VALID,0,VALID,100,VALID,0,VALID,18.462,VALID,144,VALID,0.577195,
2008-02-27, 02:45:00,VALID,916.397,VALID,0,VALID,100,VALID,-0.0169808,VALID,18.4789,VALID,151,VALID,0.627477,
2008-02-27, 02:46:00,VALID,916.384,VALID,0,VALID,100,VALID,-0.0169808,VALID,18.4786,VALID,158,VALID,0.807664,
2008-02-27, 02:47:00,VALID,916.372,VALID,0,VALID,100,VALID,-0.0169808,VALID,18.462,VALID,159,VALID,0.978125,
2008-02-27, 02:48:00,VALID,916.351,VALID,0,VALID,100,VALID,-0.0339617,VALID,18.4557,VALID,161,VALID,0.771484,
2008-02-27, 02:49:00,VALID,916.346,VALID,0,VALID,100,VALID,-0.0509425,VALID,18.4622,VALID,162,VALID,0.878239,
2008-02-27, 02:50:00,VALID,916.343,VALID,0,VALID,100,VALID,-0.0339617,VALID,18.4522,VALID,168,VALID,0.885831,
2008-02-27, 02:51:00,VALID,916.323,VALID,0,VALID,100,VALID,0,VALID,18.4522,VALID,173,VALID,0.85883,
2008-02-27, 02:52:00,VALID,916.323,VALID,0,VALID,100,VALID,-0.0169808,VALID,18.4494,VALID,174,VALID,0.957589,
2008-02-27, 02:53:00,VALID,916.331,VALID,0,VALID,100,VALID,-0.0169808,VALID,18.4559,VALID,173,VALID,0.848722,
2008-02-27, 02:54:00,VALID,916.341,VALID,0,VALID,100,VALID,-0.0339617,VALID,18.4522,VALID,171,VALID,0.631747,
2008-02-27, 02:55:00,VALID,916.353,VALID,0,VALID,100,VALID,0,VALID,18.462,VALID,179,VALID,0.578311,
2008-02-27, 02:56:00,VALID,916.381,VALID,0,VALID,100,VALID,-0.0169808,VALID,18.4719,VALID,192,VALID,0.573103,
2008-02-27, 02:57:00,VALID,916.389,VALID,0,VALID,100,VALID,-0.0169808,VALID,18.4714,VALID,207,VALID,0.476935,
2008-02-27, 02:58:00,VALID,916.399,VALID,0,VALID,100,VALID,-0.0509425,VALID,18.4819,VALID,213,VALID,1.01145,
2008-02-27, 02:59:00,VALID,916.408,VALID,0,VALID,100,VALID,0,VALID,18.4847,VALID,197,VALID,1.12348,
2008-02-27, 03:00:00,VALID,916.411,VALID,0,VALID,100,VALID,0,VALID,18.4682,VALID,197,VALID,1.15225,
2008-02-27, 03:01:00,VALID,916.409,VALID,0,VALID,100,VALID,0,VALID,18.4782,VALID,192,VALID,1.43038,
2008-02-27, 03:02:00,VALID,916.414,VALID,0,VALID,100,VALID,0,VALID,18.4782,VALID,194,VALID,1.25462,
2008-02-27, 03:03:00,VALID,916.42,VALID,0,VALID,100,VALID,0,VALID,18.4946,VALID,196,VALID,1.22897,
2008-02-27, 03:04:00,VALID,916.4,VALID,0,VALID,100,VALID,0,VALID,18.4909,VALID,188,VALID,1.12773,
2008-02-27, 03:05:00,VALID,916.405,VALID,0,VALID,100,VALID,-0.0169808,VALID,18.4879,VALID,187,VALID,0.759266,
2008-02-27, 03:06:00,VALID,916.397,VALID,0,VALID,100,VALID,0,VALID,18.4946,VALID,187,VALID,0.444111,
2008-02-27, 03:07:00,VALID,916.393,VALID,0,VALID,100,VALID,0,VALID,18.4911,VALID,188,VALID,0.733398,
2008-02-27, 03:08:00,VALID,916.401,VALID,0,VALID,100,VALID,0.0339617,VALID,18.4911,VALID,188,VALID,0.711509,
2008-02-27, 03:09:00,VALID,916.404,VALID,0,VALID,100,VALID,-0.0169808,VALID,18.4911,VALID,201,VALID,0.765625,
2008-02-27, 03:10:00,VALID,916.413,VALID,0,VALID,100,VALID,0,VALID,18.4944,VALID,190,VALID,0.967226,
2008-02-27, 03:11:00,VALID,916.41,VALID,0,VALID,100,VALID,0,VALID,18.4909,VALID,187,VALID,1.02308,
2008-02-27, 03:12:00,VALID,916.398,VALID,0,VALID,100,VALID,-0.0339617,VALID,18.4911,VALID,197,VALID,0.813953,
2008-02-27, 03:13:00,VALID,916.401,VALID,0,VALID,100,VALID,-0.0169808,VALID,18.5043,VALID,177,VALID,0.692578,
2008-02-27, 03:14:00,VALID,916.403,VALID,0,VALID,100,VALID,0,VALID,18.5074,VALID,167,VALID,1.02305,
2008-02-27, 03:15:00,VALID,916.391,VALID,0,VALID,100,VALID,0,VALID,18.4976,VALID,159,VALID,0.904916,
2008-02-27, 03:16:00,VALID,916.394,VALID,0,VALID,100,VALID,-0.0339617,VALID,18.4814,VALID,157,VALID,1.38357,
2008-02-27, 03:17:00,VALID,916.406,VALID,0,VALID,100,VALID,0,VALID,18.4986,VALID,155,VALID,1.01453,
2008-02-27, 03:18:00,VALID,916.397,VALID,0,VALID,100,VALID,0,VALID,18.5011,VALID,167,VALID,1.16738,
2008-02-27, 03:19:00,VALID,916.384,VALID,0,VALID,100,VALID,0,VALID,18.5074,VALID,155,VALID,1.45406,
2008-02-27, 03:20:00,VALID,916.385,VALID,0,VALID,100,VALID,0,VALID,18.5136,VALID,177,VALID,1.40608,
2008-02-27, 03:21:00,VALID,916.385,VALID,0,VALID,100,VALID,-0.0339617,VALID,18.5333,VALID,177,VALID,1.0457,
2008-02-27, 03:22:00,VALID,916.377,VALID,0,VALID,100,VALID,0.0169808,VALID,18.5296,VALID,153,VALID,0.602865,
2008-02-27, 03:23:00,VALID,916.379,VALID,0,VALID,100,VALID,-0.0169808,VALID,18.5495,VALID,161,VALID,1.38212,
2008-02-27, 03:24:00,VALID,916.377,VALID,0,VALID,100,VALID,0.0169808,VALID,18.559,VALID,164,VALID,1.49237,
2008-02-27, 03:25:00,VALID,916.379,VALID,0,VALID,100,VALID,0,VALID,18.5722,VALID,172,VALID,1.51376,
2008-02-27, 03:26:00,VALID,916.371,VALID,0,VALID,100,VALID,-0.0169808,VALID,18.5787,VALID,168,VALID,1.07594,
2008-02-27, 03:27:00,VALID,916.372,VALID,0,VALID,100,VALID,-0.0339617,VALID,18.5887,VALID,148,VALID,1.17012,
2008-02-27, 03:28:00,VALID,916.376,VALID,0,VALID,100,VALID,0.0169808,VALID,18.5952,VALID,156,VALID,1.09204,
2008-02-27, 03:29:00,VALID,916.378,VALID,0,VALID,100,VALID,0.0169808,VALID,18.5949,VALID,137,VALID,1.05694,
2008-02-27, 03:30:00,VALID,916.378,VALID,0,VALID,100,VALID,0.0169808,VALID,18.6081,VALID,140,VALID,1.27871,
2008-02-27, 03:31:00,VALID,916.381,VALID,0,VALID,100,VALID,0,VALID,18.6141,VALID,134,VALID,1.35565,
2008-02-27, 03:32:00,VALID,916.369,VALID,0,VALID,100,VALID,0.0169808,VALID,18.6047,VALID,137,VALID,1.4573,
2008-02-27, 03:33:00,VALID,916.36,VALID,0,VALID,100,VALID,0,VALID,18.6016,VALID,124,VALID,1.25462,
2008-02-27, 03:34:00,VALID,916.357,VALID,0,VALID,100,VALID,0,VALID,18.5949,VALID,140,VALID,1.34288,
2008-02-27, 03:35:00,VALID,916.345,VALID,0,VALID,100,VALID,0,VALID,18.5921,VALID,125,VALID,1.32395,
2008-02-27, 03:36:00,VALID,916.318,VALID,0,VALID,100,VALID,-0.0169808,VALID,18.5755,VALID,133,VALID,1.43118,
2008-02-27, 03:37:00,VALID,916.308,VALID,0,VALID,100,VALID,-0.0169808,VALID,18.5592,VALID,145,VALID,0.765262,
2008-02-27, 03:38:00,VALID,916.298,VALID,0,VALID,100,VALID,0.0169808,VALID,18.566,VALID,134,VALID,1.34144,
2008-02-27, 03:39:00,VALID,916.284,VALID,0,VALID,100,VALID,-0.0169808,VALID,18.5502,VALID,134,VALID,1.1268,
2008-02-27, 03:40:00,VALID,916.277,VALID,0,VALID,100,VALID,0,VALID,18.5398,VALID,140,VALID,0.988376,
2008-02-27, 03:41:00,VALID,916.267,VALID,0,VALID,100,VALID,-0.0339617,VALID,18.5463,VALID,132,VALID,1.09505,
2008-02-27, 03:42:00,VALID,916.275,VALID,0,VALID,100,VALID,0,VALID,18.5498,VALID,132,VALID,0.970203,
2008-02-27, 03:43:00,VALID,916.257,VALID,0,VALID,100,VALID,-0.0169808,VALID,18.5597,VALID,157,VALID,1.01315,
2008-02-27, 03:44:00,VALID,916.27,VALID,0,VALID,100,VALID,-0.0169808,VALID,18.5789,VALID,140,VALID,1.20094,
2008-02-27, 03:45:00,VALID,916.254,VALID,0,VALID,100,VALID,-0.0169808,VALID,18.5956,VALID,139,VALID,1.07393,